Regional Weather Roundup
Issued by NWS Little Rock, AR

Home | Current Version | Previous Version | Text Only | Print | Product List | Glossary Off
Versions: 1 2 3 4 5 6 7 8 9 10 11 12 13 14 15 16 17 18 19 20 21 22 23 24 25 26 27 28 29 30 31 32

000
ASUS44 KLZK 211605
RWRLZK

WEATHER ROUNDUP FOR ARKANSAS
NATIONAL WEATHER SERVICE LITTLE ROCK AR
1000 AM CST TUE NOV 21 2017

NOTE: "FAIR" INDICATES FEW OR NO CLOUDS BELOW 12,000 FEET WITH NO
SIGNIFICANT WEATHER AND/OR OBSTRUCTIONS TO VISIBILITY.

ARZ001-003-010-029-211700-
NORTHWEST ARKANSAS

CITY           SKY/WX    TMP DP  RH WIND       PRES   REMARKS
FAYETTEVILLE   PTSUNNY   55  40  56 S7        29.95R
FORT SMITH     PTSUNNY   49  39  68 NE5       29.98R
HARRISON       PTSUNNY   53  37  54 SE5       29.94R
BENTONVILLE    MOSUNNY   53  38  56 SW8       29.97R
ROGERS         CLOUDY    53  38  56 W7        29.97R
SILOAM SPGS    MOSUNNY   53  39  59 S10       29.96R
HIGHFILL       CLOUDY    54  39  57 SW6       29.96R
SPRINGDALE     PTSUNNY   55  37  50 SW9       29.96R
$$

ARZ004-005-016-211700-
NORTH CENTRAL ARKANSAS

CITY           SKY/WX    TMP DP  RH WIND       PRES   REMARKS
BATESVILLE     PTSUNNY   55  38  52 VRB3      29.99S
FLIPPIN        MOSUNNY   52  34  50 S3        29.96R
MTN HOME       PTSUNNY   52  35  52 SW7       29.95R
$$

ARZ040-041-211700-
WEST CENTRAL ARKANSAS

CITY           SKY/WX    TMP DP  RH WIND       PRES   REMARKS
MENA           CLOUDY    54  52  94 W8        29.98R
MOUNT IDA      CLOUDY    53  45  74 CALM      29.97R
$$

ARZ009-017-025-026-028-211700-
NORTHEAST ARKANSAS

CITY           SKY/WX    TMP DP  RH WIND       PRES   REMARKS
JONESBORO      PTSUNNY   48  38  68 S8        30.02S
NEWPORT        PTSUNNY   51  35  54 S14       30.01S
WALNUT RIDGE     N/A     48  34  58 S13       30.01R
BLYTHEVILLE    CLOUDY    50  37  61 S10       30.04R
NW BLYTHEVILLE PTSUNNY   50  37  62 S12G21    30.03S
$$

ARZ022-023-033-042-044-211700-
CENTRAL ARKANSAS

CITY           SKY/WX    TMP DP  RH WIND       PRES   REMARKS
LITTLE ROCK    PTSUNNY   49  36  61 E5        30.03R
N LITTLE ROCK    N/A     50  37  61 SW5       30.04R
JACKSONVILLE   PTSUNNY   51  35  55 SE5       30.02R
SEARCY         SUNNY     52  37  56 S9        30.03S
HOT SPRINGS    CLOUDY    51  38  60 CALM      30.02R
RUSSELLVILLE   CLOUDY    51  37  58 SE5       29.99R
CLINTON        FAIR      45  34  65 CALM      30.01S
$$

ARZ036-211700-
EAST ARKANSAS

CITY           SKY/WX    TMP DP  RH WIND       PRES   REMARKS
WEST MEMPHIS   MOSUNNY   50  37  61 S9        30.05S
$$

ARZ050-053-066-070-073-211700-
SOUTHWEST ARKANSAS

CITY           SKY/WX    TMP DP  RH WIND       PRES   REMARKS
ARKADELPHIA    FAIR      47  36  65 CALM      30.03S
CAMDEN         MOSUNNY   52  34  50 S5        30.02S
TEXARKANA      MOSUNNY   52  42  69 S5        29.99R
EL DORADO      CLOUDY    53  40  61 SE7       30.03R
DE QUEEN       CLOUDY    50  43  77 E6        29.98S
$$

ARZ056-057-069-211700-
SOUTHEAST ARKANSAS

CITY           SKY/WX    TMP DP  RH WIND       PRES   REMARKS
PINE BLUFF     MOSUNNY   55  33  43 S10       30.03S
STUTTGART      SUNNY     53  34  48 S10       30.04S
MONTICELLO     SUNNY     54  37  52 SE6       30.05S

$$






USA.gov is the U.S. government's official web portal to all federal, state and local government web resources and services.